[[{"header":{"parameterUnit":"m.s-1","parameterCategory":1,"la1":30.2991,"la2":30.254,"lo1":-89.0895,"lo2":-89.0444,"dy":0.0017,"dx":0.0017,"nx":28,"ny":28,"refTime":"2025-12-25T03:00:00:Z","depth":0,"parameterNumber":2,"parameterNumberName":"U-component_of_WINDS"},"data":[0,0,0,0,0,0,0,0,0,0,0,0,0,0,0,0,0,0,0,0,0,0,0,0,0,0,0,0,0,0,0,0,0,0,0,0,0,0,0,0,0,0,0,0,0,0,0,0,0,0,0,0,0,0,0,0,0,0,1.5384,1.5385,0,1.5477,1.5478,1.5479,1.5429,1.5427,1.5424,1.5422,1.5525,1.553,1.5535,0,0,0,0,0,0,0,0,0,0,0,0,0,1.5169,1.5173,1.5384,1.5385,1.5386,1.5477,1.5478,1.548,1.543,1.5427,1.5424,1.5421,1.5523,1.5529,1.5535,0,0,0,0,0,0,0,0,0,0,0,0,0,1.5263,1.5175,1.5383,1.5372,1.5372,1.5477,1.5478,1.548,1.543,1.5427,1.5423,1.5419,1.5521,1.5529,1.5536,1.566,0,0,1.556,1.5563,0,0,0,0,0,0,0,0,1.5257,1.5271,1.5372,1.5373,1.5373,1.5437,1.544,1.5541,1.5431,1.5408,1.5422,1.5417,1.5499,1.5509,1.5535,1.5665,1.567,1.556,1.5565,1.5568,1.5571,0,0,0,0,0,0,0,1.5251,1.5266,1.5421,1.5374,1.5374,1.5364,1.5373,1.5459,1.5475,1.541,1.5407,1.5418,1.5499,1.5528,1.5537,1.5671,1.556,1.5567,1.5572,1.5575,1.591,1.5915,0,0,0,0,0,0,1.5244,1.5261,1.5418,1.5424,1.5304,1.5371,1.5381,1.5421,1.5473,1.5478,1.5421,1.5415,1.5516,1.5528,1.554,1.5691,1.5568,1.5576,1.558,1.5906,1.5911,1.5916,0,0,0,0,0,0,1.524,1.5259,1.5414,1.5342,1.5361,1.5379,1.5424,1.5425,1.5453,1.5482,1.5485,1.5447,1.5514,1.553,1.5631,1.5693,1.5579,1.5586,1.5901,1.5908,1.5914,1.5991,0,0,0,0,0,0,1.5234,1.5257,1.5303,1.5343,1.5365,1.5501,1.5427,1.5429,1.5466,1.5459,1.5507,1.5511,1.5512,1.562,1.5639,1.5702,1.5592,1.5896,1.5904,1.5912,1.5983,1.6,1.6014,0,0,0,0,0,1.5226,1.5322,1.5305,1.5325,1.5421,1.5505,1.5517,1.5514,1.5471,1.5518,1.5537,1.551,1.5683,1.563,1.5651,1.5718,1.5892,1.5902,1.5911,1.5976,1.5996,1.6013,0,0,0,0,0,0,1.5291,1.5327,1.5309,1.542,1.5459,1.5496,1.5555,1.5535,1.5589,1.5581,1.5577,1.5588,1.5694,1.5716,1.5656,1.5842,1.5781,1.5795,1.5824,1.5843,1.5858,1.5851,1.5598,0,0,0,0,0,1.5318,1.538,1.5409,1.5504,1.5525,1.5537,1.5573,1.5567,1.5609,1.5626,1.5651,1.5695,1.576,1.5802,1.5863,1.5986,1.5997,1.6042,1.6057,1.607,1.6083,1.6152,1.6173,1.5948,1.5948,1.5948,0,0,1.5375,1.5402,1.5442,1.5518,1.5548,1.5615,1.5551,1.5624,1.5675,1.5638,1.5734,1.5755,1.5804,1.5917,1.5968,1.5939,1.6147,1.6082,1.6091,1.6098,1.6164,1.6185,1.6204,1.5954,1.5953,1.5952,0,0,1.5512,1.5538,1.5621,1.5652,1.5697,1.5705,1.5725,1.5765,1.5777,1.5873,1.5847,1.5909,1.6019,1.6055,1.6088,1.6241,1.6219,1.6261,1.6341,1.6408,1.6426,1.6442,1.6498,1.6518,1.6273,1.6274,1.6274,0,1.5578,1.5675,1.5667,1.5743,1.5778,1.5745,1.5831,1.5862,1.5926,1.5952,1.5918,1.6056,1.6087,1.6209,1.6246,1.6273,1.6298,1.6256,1.6423,1.6439,1.6454,1.6508,1.6529,1.6279,1.6278,1.6278,1.6277,0,1.5755,1.5823,1.5885,1.5946,1.5988,1.6068,1.6075,1.6119,1.611,1.6122,1.6223,1.6257,1.6326,1.6354,1.6346,1.6476,1.6456,1.6423,1.6362,1.648,1.6531,1.6552,1.6286,1.6284,1.6282,1.6281,0,0,1.5936,1.5991,1.6014,1.6042,1.609,1.6144,1.6224,1.6288,1.6328,1.6373,1.6442,1.6537,1.6506,1.6544,1.654,1.6599,1.672,1.6558,1.6559,1.6589,1.6868,1.6895,1.6918,1.6705,1.6709,1.6712,1.6865,0,1.6079,1.6216,1.6211,1.634,1.6405,1.6375,1.6445,1.6484,1.6498,1.6556,1.6572,1.664,1.6594,1.6616,1.6673,1.6693,1.6777,1.6682,1.6773,1.6776,1.6763,1.6945,1.6972,1.7115,1.6885,1.6888,1.689,0,1.6263,1.6313,1.6448,1.6488,1.6515,1.6577,1.6637,1.6693,1.6737,1.6743,1.6785,1.6772,1.6857,1.6792,1.691,1.6846,1.6883,1.6898,1.6904,1.6914,1.6841,1.6962,1.716,1.7182,1.6921,1.6919,1.6917,0,1.6384,1.6485,1.658,1.6604,1.6652,1.6698,1.672,1.676,1.68,1.6853,1.6879,1.6942,1.6978,1.7028,1.7034,1.6986,1.7153,1.7088,1.7163,1.7163,1.7201,1.7199,1.741,1.7222,1.7221,1.7221,1.7221,0,1.6544,1.6629,1.6635,1.6693,1.6788,1.6783,1.6877,1.6896,1.6933,1.6996,1.6974,1.7035,1.7038,1.7101,1.7106,1.7205,1.722,1.723,1.723,1.7233,1.7232,1.7258,1.7249,1.7227,1.7226,1.7224,1.7223,0,1.6696,1.6703,1.6804,1.6841,1.6853,1.6921,1.6954,1.7012,1.7023,1.7104,1.7123,1.7142,1.7215,1.7225,1.7312,1.7315,1.7434,1.7423,1.7418,1.7418,1.7492,1.7486,1.7729,1.7762,1.7551,1.7553,1.7554,0,1.6798,1.6862,1.6906,1.6946,1.6971,1.7036,1.7076,1.7074,1.7117,1.7173,1.7225,1.7295,1.7351,1.747,1.7494,1.7561,1.7553,1.7633,1.7563,1.7564,1.7557,1.7554,1.7561,1.7648,1.765,1.7652,1.7653,0,1.698,1.6981,1.7038,1.7097,1.7145,1.7192,1.7237,1.7272,1.7276,1.7326,1.74,1.7443,1.7531,1.7603,1.7668,1.7695,1.7677,1.7675,1.7696,1.77,1.7695,1.7701,1.7458,1.767,1.7668,1.7667,1.7666,1.7666,1.7112,1.7168,1.7208,1.7273,1.7306,1.7348,1.7404,1.7422,1.7483,1.7552,1.7548,1.763,1.7676,1.7762,1.7793,1.7859,1.7833,1.7863,1.7871,1.7879,1.7887,1.7683,1.7871,1.787,1.787,1.7869,1.7869,0,1.7294,1.7318,1.7378,1.744,1.7493,1.7467,1.7516,1.7562,1.7634,1.7676,1.7732,1.7818,1.7887,1.7916,1.7985,1.8033,1.8026,1.8051,1.8049,1.8056,1.7906,1.7881,1.8055,1.8055,1.8055,1.8055,1.8055,1.8055,1.7395,1.7489,1.7495,1.7607,1.7631,1.7709,1.7739,1.7779,1.7813,1.7909,1.7966,1.7984,1.8022,1.8094,1.8158,1.8165,1.8192,1.8222,1.8225,1.8085,1.8066,1.8048,1.8025,1.8227,1.8227,1.837,1.8371,1.8372]},{"header":{"parameterUnit":"m.s-1","parameterCategory":1,"la1":30.2991,"la2":30.254,"lo1":-89.0895,"lo2":-89.0444,"dy":0.0017,"dx":0.0017,"nx":28,"ny":28,"refTime":"2025-12-25T03:00:00:Z","depth":0,"parameterNumber":3,"parameterNumberName":"V-component_of_WINDS"},"data":[0,0,0,0,0,0,0,0,0,0,0,0,0,0,0,0,0,0,0,0,0,0,0,0,0,0,0,0,0,0,0,0,0,0,0,0,0,0,0,0,0,0,0,0,0,0,0,0,0,0,0,0,0,0,0,0,0,0,4.2959,4.296,0,4.31,4.3102,4.3103,4.307,4.3067,4.3064,4.3062,4.3202,4.3208,4.3215,0,0,0,0,0,0,0,0,0,0,0,0,0,4.2655,4.2661,4.2959,4.2961,4.2962,4.31,4.3102,4.3104,4.307,4.3067,4.3064,4.306,4.32,4.3208,4.3215,0,0,0,0,0,0,0,0,0,0,0,0,0,4.2791,4.2663,4.2958,4.2962,4.2964,4.31,4.3102,4.3104,4.3071,4.3067,4.3063,4.3059,4.3198,4.3207,4.3216,4.3356,0,0,4.3245,4.3249,0,0,0,0,0,0,0,0,4.2783,4.2802,4.296,4.2962,4.2964,4.3063,4.3046,4.3188,4.3072,4.303,4.3062,4.3057,4.3159,4.3171,4.3207,4.3362,4.3368,4.3246,4.3251,4.3255,4.3258,0,0,0,0,0,0,0,4.2774,4.2796,4.3015,4.2962,4.2965,4.2955,4.297,4.3073,4.3115,4.3033,4.3031,4.3049,4.3159,4.3198,4.321,4.337,4.3245,4.3254,4.326,4.3263,4.3647,4.3652,0,0,0,0,0,0,4.2763,4.2788,4.301,4.3019,4.2862,4.2964,4.2981,4.3036,4.3114,4.3122,4.3052,4.3047,4.3184,4.3199,4.3214,4.3384,4.3255,4.3264,4.327,4.3643,4.3648,4.3653,0,0,0,0,0,0,4.2757,4.2783,4.3004,4.2903,4.293,4.2974,4.3036,4.304,4.3079,4.3128,4.3135,4.3084,4.3181,4.3201,4.3321,4.3388,4.3268,4.3277,4.3637,4.3644,4.3651,4.3723,0,0,0,0,0,0,4.2748,4.2781,4.2836,4.2905,4.2936,4.311,4.304,4.3046,4.3096,4.309,4.316,4.3168,4.3179,4.3307,4.333,4.3399,4.3284,4.3631,4.364,4.3648,4.3715,4.3732,4.3746,0,0,0,0,0,4.2738,4.2849,4.2839,4.2866,4.3005,4.3114,4.3132,4.3145,4.3101,4.3156,4.3187,4.3165,4.3377,4.332,4.3346,4.3418,4.3627,4.3638,4.3648,4.3708,4.3728,4.3745,0,0,0,0,0,0,4.2786,4.2859,4.2848,4.2985,4.3044,4.3108,4.3178,4.3165,4.3237,4.3228,4.3239,4.3255,4.3378,4.3409,4.3345,4.3557,4.3496,4.3511,4.3532,4.3552,4.3567,4.3558,4.3292,0,0,0,0,0,4.2813,4.2897,4.2955,4.3071,4.3101,4.3134,4.3182,4.3187,4.3247,4.3272,4.3312,4.3371,4.345,4.3502,4.3578,4.3718,4.3733,4.3781,4.3796,4.3809,4.3823,4.39,4.3922,4.3687,4.3687,4.3687,0,0,4.2869,4.2919,4.2971,4.3082,4.3128,4.3213,4.3155,4.3248,4.3312,4.3285,4.3402,4.3433,4.3499,4.363,4.369,4.366,4.3891,4.3822,4.3831,4.3839,4.3913,4.3935,4.3955,4.3694,4.3692,4.3691,0,0,4.3016,4.3062,4.3164,4.3212,4.3283,4.3304,4.3328,4.3395,4.3416,4.3533,4.3515,4.3589,4.3726,4.3774,4.3816,4.3981,4.3963,4.4005,4.4086,4.4161,4.4179,4.4196,4.4256,4.4277,4.4018,4.4018,4.4018,0,4.3076,4.3206,4.3217,4.3313,4.3362,4.3343,4.3446,4.3491,4.3583,4.3616,4.3582,4.3754,4.3797,4.3939,4.3979,4.4014,4.4042,4.3998,4.4176,4.4193,4.4208,4.4265,4.4288,4.4023,4.4022,4.4022,4.4022,0,4.3278,4.3368,4.3441,4.3533,4.3589,4.3688,4.3713,4.3769,4.3768,4.3793,4.3912,4.3963,4.4049,4.4083,4.4082,4.4225,4.4205,4.4173,4.4112,4.4235,4.4289,4.4311,4.403,4.4028,4.4027,4.4025,0,0,4.346,4.3556,4.3584,4.3625,4.3701,4.3771,4.3867,4.3953,4.4002,4.4064,4.4146,4.4262,4.4234,4.4282,4.4286,4.4351,4.448,4.4312,4.4313,4.4343,4.4641,4.4666,4.4692,4.4468,4.4472,4.4475,4.4636,0,4.3615,4.3789,4.3801,4.3957,4.4041,4.4023,4.4108,4.4163,4.4188,4.4262,4.4288,4.4371,4.4327,4.4356,4.442,4.4451,4.454,4.4439,4.4544,4.4547,4.453,4.472,4.4746,4.4896,4.4657,4.4661,4.4664,0,4.3819,4.3891,4.4056,4.4121,4.4157,4.4233,4.4313,4.4383,4.4445,4.4458,4.4512,4.4507,4.4606,4.4539,4.4675,4.4606,4.4649,4.4671,4.4677,4.4688,4.4614,4.4738,4.4944,4.4967,4.4697,4.4694,4.4692,0,4.3938,4.4075,4.4192,4.4227,4.4306,4.436,4.4395,4.4453,4.4504,4.4573,4.4606,4.4684,4.4728,4.4788,4.4804,4.4754,4.494,4.4875,4.4954,4.4954,4.4995,4.4993,4.5213,4.502,4.502,4.5019,4.5019,0,4.4111,4.4213,4.4246,4.4319,4.4432,4.4444,4.4556,4.4587,4.4639,4.4716,4.4704,4.4776,4.4792,4.4866,4.4879,4.499,4.5009,4.5022,4.5025,4.5025,4.5024,4.5055,4.5046,4.5025,4.5024,4.5023,4.5022,0,4.4264,4.429,4.4417,4.4481,4.45,4.458,4.4635,4.4703,4.4726,4.4824,4.4847,4.4884,4.4971,4.4992,4.5096,4.5104,4.5236,4.5227,4.5216,4.5216,4.5295,4.5288,4.5545,4.5579,4.5362,4.5364,4.5365,0,4.4373,4.4452,4.4525,4.4577,4.4615,4.4697,4.4749,4.4764,4.4819,4.4895,4.4954,4.5041,4.5111,4.5251,4.5286,4.5365,4.5359,4.5443,4.5371,4.5369,4.5362,4.5359,4.5367,4.5458,4.546,4.5462,4.5464,0,4.4565,4.4575,4.4652,4.4734,4.4797,4.4861,4.4923,4.4965,4.4988,4.5049,4.514,4.5194,4.5301,4.5387,4.5466,4.55,4.5486,4.5486,4.5509,4.5511,4.5502,4.5509,4.5256,4.548,4.5479,4.5477,4.5477,4.5476,4.4701,4.477,4.4833,4.4919,4.4967,4.5025,4.5093,4.5125,4.5202,4.5291,4.5294,4.5392,4.5451,4.5557,4.5596,4.5672,4.5646,4.5679,4.5687,4.5696,4.5704,4.5488,4.5686,4.5686,4.5685,4.5685,4.5684,0,4.4894,4.4934,4.5013,4.51,4.5168,4.5149,4.5216,4.5274,4.5361,4.5418,4.5488,4.5591,4.5674,4.5715,4.5797,4.585,4.5846,4.5872,4.5869,4.5877,4.5721,4.5694,4.5874,4.5874,4.5874,4.5874,4.5874,4.5874,4.5003,4.512,4.5136,4.5276,4.5314,4.5413,4.5453,4.5505,4.5551,4.5668,4.5738,4.5765,4.5815,4.5901,4.5976,4.5985,4.6017,4.6046,4.6053,4.5907,4.5888,4.587,4.5844,4.6053,4.6053,4.6203,4.6204,4.6205]}]]